LiveATC.Net - Listen to live air traffic control over the Internet!

Find LiveATC Audio Streams


Airport/ARTCC Code

Frequency Search
(e.g., 124.400, 128.75)
Site-wide search
 


Browse LiveATC Feeds
Top 50 LiveATC Feeds
LiveATC Feed Map
Bad Weather Areas

LiveATC FAQ
Offer LiveATC feed
Contact LiveATC.net
Press Inquiries

LiveATC on iPhone
LiveATC on Android

Windows Phone
Windows 8/10

LiveATC Mobile
(Mobile browser)

ATC Audio Archives
Interesting Recordings

LiveATC Forums

Home Page
About LiveATC.net
Make a Donation
Terms of Use
Privacy Policy

Canadian Air Freqs

AIRMETs/SIGMETs

FAA Airport Status
Nat'l Airspace Status
Arrival Demand Charts


Server Software By:
Icecast.org
Liquidsoap

Select an area of interest:
U.S. Feeds: Class B Airports | Class C Airports | Class D/Other Airports | ARTCC (Centers)
International Feeds: Canada | Europe | Oceania | Asia | South America | North/Central America | Africa
Misc Feeds: HF Feeds
Search by ICAO/IATA airport code:   (e.g., kbos, kjfk, lax, eham, etc.)


Currently Available Live Feeds: 2419
Status Updated: Thu Feb 21 2019 14:49:01 UTC


NOTICE

Unauthorized use prohibited. See LiveATC.net Terms of Service

Asia Airport Feeds

 

LTAF Tower/Approach (Archives)
Adana, Turkey

Feed Status: UP
Listen in your browser - HTML5 player(in browser, HTML5)
Click here to listen with your own player(launches your MP3 player)

LTAF 211420Z 25011KT 9999 SCT035 17/09 Q1019 NOSIG

LTAF Flight Activity (Flightaware)

Listeners: 1 out of 1261 total

Adana Approach: 118.300
Adana Tower: 131.100
Adana Tower: 121.100

OBBI Gnd/Twr/App (Archives)
Muharraq, Bahrain

Feed Status: UP
Listen in your browser - HTML5 player(in browser, HTML5)
Click here to listen with your own player(launches your MP3 player)

OBBI 211430Z 36006KT CAVOK 19/07 Q1020 NOSIG


Listeners: 0 out of 1261 total

Bahrain Arrival: 127.850
Bahrain Departure: 119.100
Bahrain Ground: 121.850
Bahrain Tower: 118.500

OKBK Gnd/Twr/App/Radar (Archives)
Kuwait City, Kuwait

Feed Status: UP
Listen in your browser - HTML5 player(in browser, HTML5)
Click here to listen with your own player(launches your MP3 player)

OKBK 211400Z 12008KT CAVOK 19/05 Q1019 NOSIG


Listeners: 9 out of 1261 total

Kuwait Approach: 121.300
Kuwait Approach: 124.800
Kuwait Ground: 121.700
Kuwait Radar (Center): 125.300
Kuwait Tower: 118.300

OPKC Gnd/Twr/Radar (Archives)
Karachi, Pakistan

Feed Status: UP
Listen in your browser - HTML5 player(in browser, HTML5)
Click here to listen with your own player(launches your MP3 player)

OPKC 211355Z 24010KT 5000 HZ SCT020 23/13 Q1017 NOSIG


Listeners: 0 out of 1261 total

Karachi Ground: 121.600
Karachi Radar: 125.500
Karachi Tower: 118.300

OPLA ATIS (Archives)
Lahore, Pakistan

Feed Status: UP
Listen in your browser - HTML5 player(in browser, HTML5)
Click here to listen with your own player(launches your MP3 player)

OPLA 211355Z 33007KT 4000 FU SCT040 BKN100 16/12 Q1017 TEMPO 34015G30KT 2000 -TSRA FEW030CB RMK QFE991 RMK A30.02


Listeners: 0 out of 1261 total

Lahore ATIS: 126.300

OPLA/OPLH Gnd/Twr/App (Archives)
Lahore, Pakistan

Feed Status: UP
Listen in your browser - HTML5 player(in browser, HTML5)
Click here to listen with your own player(launches your MP3 player)

OPLA 211355Z 33007KT 4000 FU SCT040 BKN100 16/12 Q1017 TEMPO 34015G30KT 2000 -TSRA FEW030CB RMK QFE991 RMK A30.02


Listeners: 1 out of 1261 total

Lahore Approach: 121.300
Lahore Approach: 125.300
Lahore Control: 127.500
Lahore Ground: 118.400
Lahore Tower: 118.100
Lahore Tower: 121.800
Walton (OPLH) Tower: 119.400

OPLA/OPLH Gnd/Twr/App (Archives)
Lahore, Pakistan

Feed Status: UP
Listen in your browser - HTML5 player(in browser, HTML5)
Click here to listen with your own player(launches your MP3 player)

OPLA 211355Z 33007KT 4000 FU SCT040 BKN100 16/12 Q1017 TEMPO 34015G30KT 2000 -TSRA FEW030CB RMK QFE991 RMK A30.02


Listeners: 1 out of 1261 total

Lahore Approach: 121.300
Lahore Approach: 125.300
Lahore Control: 127.500
Lahore Ground: 118.400
Lahore Tower: 118.100
Lahore Tower: 121.800
Walton (OPLH) Tower: 119.400

RCTP Approach (Archives)
Taipei, Taiwan

Feed Status: UP
Listen in your browser - HTML5 player(in browser, HTML5)
Click here to listen with your own player(launches your MP3 player)

RCTP 211400Z 05014KT 9999 SCT007 BKN009 BKN015 19/18 Q1018 NOSIG RMK A3006

RCTP Flight Activity (Flightaware)

Listeners: 3 out of 1261 total

Emergency/Guard: 121.500
Taipei Approach: 125.100
Taipei Approach: 125.600
Taipei Approach: 128.500

RCTP Tower (Archives)
Taipei, Taiwan

Feed Status: UP
Listen in your browser - HTML5 player(in browser, HTML5)
Click here to listen with your own player(launches your MP3 player)

RCTP 211400Z 05014KT 9999 SCT007 BKN009 BKN015 19/18 Q1018 NOSIG RMK A3006

RCTP Flight Activity (Flightaware)

Listeners: 1 out of 1261 total

Taipei Tower: 118.700

RJAA Approach (Archives)
Tokyo, Japan

Feed Status: UP
Listen in your browser - HTML5 player(in browser, HTML5)
Click here to listen with your own player(launches your MP3 player)

RJAA 211400Z 36007KT 9999 FEW030 BKN060 08/M00 Q1020 NOSIG

RJAA Flight Activity (Flightaware)

Listeners: 5 out of 1261 total

Tokyo Approach: 124.400
Tokyo Approach: 127.700

RJAA Clearance Delivery (Archives)
Tokyo, Japan

Feed Status: UP
Listen in your browser - HTML5 player(in browser, HTML5)
Click here to listen with your own player(launches your MP3 player)

RJAA 211400Z 36007KT 9999 FEW030 BKN060 08/M00 Q1020 NOSIG

RJAA Flight Activity (Flightaware)

Listeners: 0 out of 1261 total

Narita Clearance Delivery (Asia/Pacific): 121.650
Narita Clearance Delivery (US/Europe): 121.900

RJAA Clearance Delivery #1 (Archives)
Tokyo, Japan

Feed Status: UP
Listen in your browser - HTML5 player(in browser, HTML5)
Click here to listen with your own player(launches your MP3 player)

RJAA 211400Z 36007KT 9999 FEW030 BKN060 08/M00 Q1020 NOSIG

RJAA Flight Activity (Flightaware)

Listeners: 0 out of 1261 total

Narita Clearance Delivery (Asia/Pacific): 121.650

RJAA Clearance Delivery #2 (Archives)
Tokyo, Japan

Feed Status: UP
Listen in your browser - HTML5 player(in browser, HTML5)
Click here to listen with your own player(launches your MP3 player)

RJAA 211400Z 36007KT 9999 FEW030 BKN060 08/M00 Q1020 NOSIG

RJAA Flight Activity (Flightaware)

Listeners: 0 out of 1261 total

Narita Clearance Delivery (US/Europe): 121.900

RJAA Company Channels (Archives)
Tokyo, Japan

Feed Status: UP
Listen in your browser - HTML5 player(in browser, HTML5)
Click here to listen with your own player(launches your MP3 player)

RJAA 211400Z 36007KT 9999 FEW030 BKN060 08/M00 Q1020 NOSIG

RJAA Flight Activity (Flightaware)

Listeners: 2 out of 1261 total

Ops: 130.450
Ops: 130.550
Ops: 130.900
Ops: 131.025
Ops: 131.100
Ops: 131.200
Ops: 131.700
Ops: 131.750

RJAA Departure (Archives)
Tokyo, Japan

Feed Status: UP
Listen in your browser - HTML5 player(in browser, HTML5)
Click here to listen with your own player(launches your MP3 player)

RJAA 211400Z 36007KT 9999 FEW030 BKN060 08/M00 Q1020 NOSIG

RJAA Flight Activity (Flightaware)

Listeners: 2 out of 1261 total

Tokyo Departure: 119.600
Tokyo Departure: 124.200

RJAA Departure #1 (Archives)
Tokyo, Japan

Feed Status: UP
Listen in your browser - HTML5 player(in browser, HTML5)
Click here to listen with your own player(launches your MP3 player)

RJAA 211400Z 36007KT 9999 FEW030 BKN060 08/M00 Q1020 NOSIG

RJAA Flight Activity (Flightaware)

Listeners: 1 out of 1261 total

Tokyo Departure: 124.200

RJAA Departure #2 (Archives)
Tokyo, Japan

Feed Status: UP
Listen in your browser - HTML5 player(in browser, HTML5)
Click here to listen with your own player(launches your MP3 player)

RJAA 211400Z 36007KT 9999 FEW030 BKN060 08/M00 Q1020 NOSIG

RJAA Flight Activity (Flightaware)

Listeners: 0 out of 1261 total

Tokyo Departure: 119.600

RJAA Emergency/Guard (Archives)
Tokyo, Japan

Feed Status: UP
Listen in your browser - HTML5 player(in browser, HTML5)
Click here to listen with your own player(launches your MP3 player)

RJAA 211400Z 36007KT 9999 FEW030 BKN060 08/M00 Q1020 NOSIG

RJAA Flight Activity (Flightaware)

Listeners: 1 out of 1261 total

Emergency/Guard: 121.500

RJAA Ground #1 (Archives)
Tokyo, Japan

Feed Status: UP
Listen in your browser - HTML5 player(in browser, HTML5)
Click here to listen with your own player(launches your MP3 player)

RJAA 211400Z 36007KT 9999 FEW030 BKN060 08/M00 Q1020 NOSIG

RJAA Flight Activity (Flightaware)

Listeners: 1 out of 1261 total

Narita Ground: 121.850

RJAA Ground #2 (Archives)
Tokyo, Japan

Feed Status: UP
Listen in your browser - HTML5 player(in browser, HTML5)
Click here to listen with your own player(launches your MP3 player)

RJAA 211400Z 36007KT 9999 FEW030 BKN060 08/M00 Q1020 NOSIG

RJAA Flight Activity (Flightaware)

Listeners: 1 out of 1261 total

Narita Ground: 121.950

RJAA Radar (Archives)
Tokyo, Japan

Feed Status: UP
Listen in your browser - HTML5 player(in browser, HTML5)
Click here to listen with your own player(launches your MP3 player)

RJAA 211400Z 36007KT 9999 FEW030 BKN060 08/M00 Q1020 NOSIG

RJAA Flight Activity (Flightaware)

Listeners: 2 out of 1261 total

Tokyo Radar: 120.200

RJAA Ramp #1 (Archives)
Tokyo, Japan

Feed Status: UP
Listen in your browser - HTML5 player(in browser, HTML5)
Click here to listen with your own player(launches your MP3 player)

RJAA 211400Z 36007KT 9999 FEW030 BKN060 08/M00 Q1020 NOSIG

RJAA Flight Activity (Flightaware)

Listeners: 0 out of 1261 total

Narita Ramp: 121.600

RJAA Ramp #2 (Archives)
Tokyo, Japan

Feed Status: UP
Listen in your browser - HTML5 player(in browser, HTML5)
Click here to listen with your own player(launches your MP3 player)

RJAA 211400Z 36007KT 9999 FEW030 BKN060 08/M00 Q1020 NOSIG

RJAA Flight Activity (Flightaware)

Listeners: 0 out of 1261 total

Narita Ramp: 121.750

RJAA TCA (Archives)
Tokyo, Japan

Feed Status: UP
Listen in your browser - HTML5 player(in browser, HTML5)
Click here to listen with your own player(launches your MP3 player)

RJAA 211400Z 36007KT 9999 FEW030 BKN060 08/M00 Q1020 NOSIG

RJAA Flight Activity (Flightaware)

Listeners: 1 out of 1261 total

Tokyo TCA (Terminal Control Area): 119.450

RJAA Tokyo Control (Archives)
Tokyo, Japan

Feed Status: UP
Listen in your browser - HTML5 player(in browser, HTML5)
Click here to listen with your own player(launches your MP3 player)

RJAA 211400Z 36007KT 9999 FEW030 BKN060 08/M00 Q1020 NOSIG

RJAA Flight Activity (Flightaware)

Listeners: 0 out of 1261 total

Tokyo Control: 125.900

RJAA Tower #1 (Archives)
Tokyo, Japan

Feed Status: UP
Listen in your browser - HTML5 player(in browser, HTML5)
Click here to listen with your own player(launches your MP3 player)

RJAA 211400Z 36007KT 9999 FEW030 BKN060 08/M00 Q1020 NOSIG

RJAA Flight Activity (Flightaware)

Listeners: 2 out of 1261 total

Narita Tower (Rwy 16R/34L): 118.200

RJAA Tower #2 (Archives)
Tokyo, Japan

Feed Status: UP
Listen in your browser - HTML5 player(in browser, HTML5)
Click here to listen with your own player(launches your MP3 player)

RJAA 211400Z 36007KT 9999 FEW030 BKN060 08/M00 Q1020 NOSIG

RJAA Flight Activity (Flightaware)

Listeners: 3 out of 1261 total

Narita Tower (Rwy 16L/34R): 118.350

RJOO Tower (Archives)
Osaka, Japan

Feed Status: UP
Listen in your browser - HTML5 player(in browser, HTML5)
Click here to listen with your own player(launches your MP3 player)

RJOO 211100Z 33005KT 300V360 9999 FEW025 BKN050 08/M01 Q1023

RJOO Flight Activity (Flightaware)

Listeners: 0 out of 1261 total

Osaka Tower: 118.100

RJSF RDO (Archives)
Sukagawa, Japan

Feed Status: UP
Listen in your browser - HTML5 player(in browser, HTML5)
Click here to listen with your own player(launches your MP3 player)

RJSF 211100Z 36010KT 9999 FEW030 02/M02 Q1019

RJSF Flight Activity (Flightaware)

Listeners: 0 out of 1261 total

Fukushima Radio: 118.050

RJTT App/Dep (Archives)
Tokyo, Japan

Feed Status: UP
Listen in your browser - HTML5 player(in browser, HTML5)
Click here to listen with your own player(launches your MP3 player)

RJTT 211400Z 34010KT 9999 FEW030 BKN080 09/M01 Q1020 NOSIG

RJTT Flight Activity (Flightaware)

Listeners: 21 out of 1261 total

Tokyo Approach: 119.100
Tokyo Approach: 119.400
Tokyo Departure: 120.800
Tokyo Departure: 126.000

RJTT Approach (Archives)
Tokyo, Japan

Feed Status: UP
Listen in your browser - HTML5 player(in browser, HTML5)
Click here to listen with your own player(launches your MP3 player)

RJTT 211400Z 34010KT 9999 FEW030 BKN080 09/M01 Q1020 NOSIG

RJTT Flight Activity (Flightaware)

Listeners: 2 out of 1261 total

Tokyo Approach: 119.100
Tokyo Approach: 119.400

RJTT ATIS (Archives)
Tokyo, Japan

Feed Status: UP
Listen in your browser - HTML5 player(in browser, HTML5)
Click here to listen with your own player(launches your MP3 player)

RJTT 211400Z 34010KT 9999 FEW030 BKN080 09/M01 Q1020 NOSIG

RJTT Flight Activity (Flightaware)

Listeners: 0 out of 1261 total

Tokyo ATIS: 128.800

RJTT Company Channels (Archives)
Tokyo, Japan

Feed Status: UP
Listen in your browser - HTML5 player(in browser, HTML5)
Click here to listen with your own player(launches your MP3 player)

RJTT 211400Z 34010KT 9999 FEW030 BKN080 09/M01 Q1020 NOSIG

RJTT Flight Activity (Flightaware)

Listeners: 26 out of 1261 total

Company TBD: 128.500
Company TBD: 131.850
Company TBD: 129.725
Company TBD: 129.700
Company TBD: 131.900
Company TBD: 129.850
Company TBD: 128.975
Company TBD: 123.675
Company TBD: 132.075

RJTT Del/Ground (Archives)
Tokyo, Japan

Feed Status: UP
Listen in your browser - HTML5 player(in browser, HTML5)
Click here to listen with your own player(launches your MP3 player)

RJTT 211400Z 34010KT 9999 FEW030 BKN080 09/M01 Q1020 NOSIG

RJTT Flight Activity (Flightaware)

Listeners: 1 out of 1261 total

Tokyo Clearance Delivery: 121.825
Tokyo Ground: 121.700
Tokyo Ground: 118.225
Tokyo Ground: 121.625
Tokyo Ground: 121.975

RJTT Del/Twr/TCA/Gnd (Archives)
Tokyo, Japan

Feed Status: UP
Listen in your browser - HTML5 player(in browser, HTML5)
Click here to listen with your own player(launches your MP3 player)

RJTT 211400Z 34010KT 9999 FEW030 BKN080 09/M01 Q1020 NOSIG

RJTT Flight Activity (Flightaware)

Listeners: 13 out of 1261 total

Tokyo Clearance Delivery: 121.825
Tokyo Ground: 121.975
Tokyo Ground: 121.625
Tokyo Ground: 121.700
Tokyo Ground: 118.225
Tokyo TCA: 124.750
Tokyo Tower: 118.100
Tokyo Tower: 118.575
Tokyo Tower: 118.725
Tokyo Tower: 124.350

RJTT Departure (Archives)
Tokyo, Japan

Feed Status: UP
Listen in your browser - HTML5 player(in browser, HTML5)
Click here to listen with your own player(launches your MP3 player)

RJTT 211400Z 34010KT 9999 FEW030 BKN080 09/M01 Q1020 NOSIG

RJTT Flight Activity (Flightaware)

Listeners: 1 out of 1261 total

Tokyo Departure: 120.800
Tokyo Departure: 126.000

RJTT Tokyo Control (Archives)
Tokyo, Japan

Feed Status: UP
Listen in your browser - HTML5 player(in browser, HTML5)
Click here to listen with your own player(launches your MP3 player)

RJTT 211400Z 34010KT 9999 FEW030 BKN080 09/M01 Q1020 NOSIG

RJTT Flight Activity (Flightaware)

Listeners: 24 out of 1261 total

Tokyo Control: 133.700
Tokyo Control: 125.900
Tokyo Control: 120.500

RJTT Twr/TCA (Archives)
Tokyo, Japan

Feed Status: UP
Listen in your browser - HTML5 player(in browser, HTML5)
Click here to listen with your own player(launches your MP3 player)

RJTT 211400Z 34010KT 9999 FEW030 BKN080 09/M01 Q1020 NOSIG

RJTT Flight Activity (Flightaware)

Listeners: 3 out of 1261 total

Tokyo TCA: 124.750
Tokyo Tower: 118.100
Tokyo Tower: 118.575
Tokyo Tower: 118.725
Tokyo Tower: 124.350

RJTY Approach (Archives)
Tokyo, Japan

Feed Status: UP
Listen in your browser - HTML5 player(in browser, HTML5)
Click here to listen with your own player(launches your MP3 player)

RJTY 211356Z AUTO 00000KT 10SM OVC075 06/M04 A3017 RMK AO2 SLP224 T00631036 FZRANO $

RJTY Flight Activity (Flightaware)

Listeners: 5 out of 1261 total

Yokota Approach: 118.300
Yokota APproach: 123.800
Yokota Approach: 120.700

RJTY ATIS (Archives)
Tokyo, Japan

Feed Status: UP
Listen in your browser - HTML5 player(in browser, HTML5)
Click here to listen with your own player(launches your MP3 player)

RJTY 211356Z AUTO 00000KT 10SM OVC075 06/M04 A3017 RMK AO2 SLP224 T00631036 FZRANO $

RJTY Flight Activity (Flightaware)

Listeners: 0 out of 1261 total

Yokota ATIS: 126.400

RJTY Ground (Archives)
Tokyo, Japan

Feed Status: UP
Listen in your browser - HTML5 player(in browser, HTML5)
Click here to listen with your own player(launches your MP3 player)

RJTY 211356Z AUTO 00000KT 10SM OVC075 06/M04 A3017 RMK AO2 SLP224 T00631036 FZRANO $

RJTY Flight Activity (Flightaware)

Listeners: 0 out of 1261 total

Yokota Ground: 133.200

RJTY Ground/Tower (Archives)
Tokyo, Japan

Feed Status: UP
Listen in your browser - HTML5 player(in browser, HTML5)
Click here to listen with your own player(launches your MP3 player)

RJTY 211356Z AUTO 00000KT 10SM OVC075 06/M04 A3017 RMK AO2 SLP224 T00631036 FZRANO $

RJTY Flight Activity (Flightaware)

Listeners: 1 out of 1261 total

Yokota Ground: 133.200
Yokota Tower: 134.300

RJTY Tower (Archives)
Tokyo, Japan

Feed Status: UP
Listen in your browser - HTML5 player(in browser, HTML5)
Click here to listen with your own player(launches your MP3 player)

RJTY 211356Z AUTO 00000KT 10SM OVC075 06/M04 A3017 RMK AO2 SLP224 T00631036 FZRANO $

RJTY Flight Activity (Flightaware)

Listeners: 0 out of 1261 total

Yokota Tower: 134.300

RKSG Gnd/Twr/App (Archives)
Pyeongtaek, Korea, Republic of

Feed Status: UP
Listen in your browser - HTML5 player(in browser, HTML5)
Click here to listen with your own player(launches your MP3 player)

RKSG 211356Z VRB03KT 4SM BR CLR 00/00 A3028 RMK AO2A SLP258 T10031003 $

RKSG Flight Activity (Flightaware)

Listeners: 0 out of 1261 total

Desiderio Final: 255.800
Desiderio GCA: 226.800
Desiderio GCA: 127.000
Desiderio Ground (Camp Humphreys A-511 AAF): 119.500
Desiderio Ground UHF: 229.700
Desiderio Ops: 294.100
Desiderio Tower (Camp Humphreys A-511 AAF): 122.500
Desiderio Tower UHF: 257.800

RKRR Incheon Control (Archives)
Incheon, Korea, Republic of

Feed Status: UP
Listen in your browser - HTML5 player(in browser, HTML5)
Click here to listen with your own player(launches your MP3 player)

RKSI 211400Z 32002KT 6000 NSC 02/M02 Q1025 NOSIG

RKSI Flight Activity (Flightaware)

Listeners: 4 out of 1261 total

Incheon Control North Sector (Primary): 128.700
Incheon Control North Sector (Secondary): 132.800
Incheon Control Northwest Sector (Primary): 126.175
Incheon Control Northwest Sector (Secondary): 123.725

RKSO Gnd/Twr/App (Archives)
Pyeongtaek, Korea, Republic of

Feed Status: UP
Listen in your browser - HTML5 player(in browser, HTML5)
Click here to listen with your own player(launches your MP3 player)

RKSO 211358Z 09003KT 6SM BR CLR M02/M04 A3028 RMK AO2A SLP258 T10241039 $

RKSO Flight Activity (Flightaware)

Listeners: 3 out of 1261 total

25 FS Ops: 229.000
36FS Ops: 371.300
Osan Air Base Approach/Departure: 127.900
Osan Air Base Approach/Departure: 133.650
Osan Air Base Ground: 132.450
Osan Air Base Tower: 122.100
Osan App/Dep UHF: 306.600
Osan App/Dep UHF: 234.300
Osan App/Dep UHF (possibly inactive): 306.300
Osan App/Dep UHF (possibly inactive): 363.100
Osan Ground UHF: 253.700
Osan SAR: 282.800
Osan SAR: 381.000
Osan SOF: 299.800
Osan Tower UHF: 308.800
Stallion Ops: 276.200

RPLL Approach/Departure #1 (Archives)
Manila, Philippines

Feed Status: UP
Listen in your browser - HTML5 player(in browser, HTML5)
Click here to listen with your own player(launches your MP3 player)

RPLL 211400Z 14004KT 9999 FEW025 26/18 Q1016 NOSIG RMK A3000

RPLL Flight Activity (Flightaware)

Listeners: 0 out of 1261 total

Manila Approach/Departure: 121.100

RPLL Approach/Departure #2 (Archives)
Manila, Philippines

Feed Status: UP
Listen in your browser - HTML5 player(in browser, HTML5)
Click here to listen with your own player(launches your MP3 player)

RPLL 211400Z 14004KT 9999 FEW025 26/18 Q1016 NOSIG RMK A3000

RPLL Flight Activity (Flightaware)

Listeners: 0 out of 1261 total

Manila Approach/Departure: 119.700

RPLL ATIS (Archives)
Manila, Philippines

Feed Status: UP
Listen in your browser - HTML5 player(in browser, HTML5)
Click here to listen with your own player(launches your MP3 player)

RPLL 211400Z 14004KT 9999 FEW025 26/18 Q1016 NOSIG RMK A3000

RPLL Flight Activity (Flightaware)

Listeners: 0 out of 1261 total

Manila ATIS: 126.400

RPLL Clearance Delivery (Archives)
Manila, Philippines

Feed Status: UP
Listen in your browser - HTML5 player(in browser, HTML5)
Click here to listen with your own player(launches your MP3 player)

RPLL 211400Z 14004KT 9999 FEW025 26/18 Q1016 NOSIG RMK A3000

RPLL Flight Activity (Flightaware)

Listeners: 0 out of 1261 total

Manila Clearance Delivery (Primary): 125.100
Manila Clearance Delivery (Secondary): 125.500

RPLL Ground (Archives)
Manila, Philippines

Feed Status: UP
Listen in your browser - HTML5 player(in browser, HTML5)
Click here to listen with your own player(launches your MP3 player)

RPLL 211400Z 14004KT 9999 FEW025 26/18 Q1016 NOSIG RMK A3000

RPLL Flight Activity (Flightaware)

Listeners: 0 out of 1261 total

Manila Ground: 121.800

RPLL Ramp/Taxi (Archives)
Manila, Philippines

Feed Status: UP
Listen in your browser - HTML5 player(in browser, HTML5)
Click here to listen with your own player(launches your MP3 player)

RPLL 211400Z 14004KT 9999 FEW025 26/18 Q1016 NOSIG RMK A3000

RPLL Flight Activity (Flightaware)

Listeners: 0 out of 1261 total

Manila Ramp/Taxi: 121.350
Manila Ramp/Taxi: 121.700

RPLL Tower (Archives)
Manila, Philippines

Feed Status: UP
Listen in your browser - HTML5 player(in browser, HTML5)
Click here to listen with your own player(launches your MP3 player)

RPLL 211400Z 14004KT 9999 FEW025 26/18 Q1016 NOSIG RMK A3000

RPLL Flight Activity (Flightaware)

Listeners: 1 out of 1261 total

Manila Tower: 118.100

HF CWP/SEA (Archives)
Pyeongtaek, Korea, Republic of

Feed Status: UP
Listen in your browser - HTML5 player(in browser, HTML5)
Click here to listen with your own player(launches your MP3 player)


Listeners: 0 out of 1261 total

CWP 1 (Tokyo): 11.384
CWP 1/2 (Tokyo): 13.300
CWP-1/2 (San Francisco): 17.904
CWP-1/2 (Tokyo/Manila): 8.903
CWP-1/2 (Tokyo/San Francisco): 21.985
SEA-2 (Manila): 8.942

Receiver location: Seoul, Korea

UAAA Approach (Archives)
Almaty, Kazakhstan

Feed Status: UP
Listen in your browser - HTML5 player(in browser, HTML5)
Click here to listen with your own player(launches your MP3 player)

UAAA 211400Z 08003MPS 040V100 9999 SCT050CB BKN100 M02/M06 Q1034 R88/2/0150 NOSIG

UAAA Flight Activity (Flightaware)

Listeners: 0 out of 1261 total

Almaty Approach: 124.800

UAAA Tower (Archives)
Almaty, Kazakhstan

Feed Status: UP
Listen in your browser - HTML5 player(in browser, HTML5)
Click here to listen with your own player(launches your MP3 player)

UAAA 211400Z 08003MPS 040V100 9999 SCT050CB BKN100 M02/M06 Q1034 R88/2/0150 NOSIG

UAAA Flight Activity (Flightaware)

Listeners: 0 out of 1261 total

Almaty Tower: 119.400

UAAA Tower/Approach (Archives)
Almaty, Kazakhstan

Feed Status: UP
Listen in your browser - HTML5 player(in browser, HTML5)
Click here to listen with your own player(launches your MP3 player)

UAAA 211400Z 08003MPS 040V100 9999 SCT050CB BKN100 M02/M06 Q1034 R88/2/0150 NOSIG

UAAA Flight Activity (Flightaware)

Listeners: 2 out of 1261 total

Almaty Approach: 124.800
Almaty Tower: 119.400

UNNT Gnd/Twr/App/Radar/Misc (Archives)
Novosibirsk, Russia

Feed Status: UP
Listen in your browser - HTML5 player(in browser, HTML5)
Click here to listen with your own player(launches your MP3 player)

UNNT 211400Z 23007MPS 9999 DRSN BKN033 M06/M11 Q1027 R25/490144 R16/490144 NOSIG RMK QFE760/1013

UNNT Flight Activity (Flightaware)

Listeners: 9 out of 1261 total

ACC_Novosibirsk-Control [5th military channel]: 128.500
ACC_Novosibirsk-Control [Southeast]: 126.100
ACC_Novosibirsk-Control [West]: 127.000
GPA_Kristallik [Severniy airfield]: 123.425
GPA_Sernisiy [Chkalovskiy airfield]: 124.750
GPA_Tomsk Information 1: 134.500
MIL_3 [3rd military channel]: 130.750
MIL_Larek [Shilovo facility]: 123.750
MIL_Maneken [Chkalovskiy airfield]: 123.550
MIL_Novosibirsk-1 [1st military channel]: 124.000
MIL_Noyabr' 31: 124.900
MIL_Trimaran: 124.500
SP_Air-to-Air: 123.450
SP_Air-to-Air 2: 123.400
SP_Common backup frequency: 129.000
SP_Emergency: 121.500
SP_Emergency 2: 123.100
SP_Flyoff: 124.375
SURF_Boarding: 163.425
SURF_Duty chart: 163.800
SURF_O&D Service: 163.325
SURF_Search & Rescue: 164.000
SURF_Security: 163.750
SURF_Tower surf: 163.650
SURF_Vehicles: 163.850
UNNT_Backup frequency: 127.100
UNNT_Novosibirsk-Approach: 127.500
UNNT_Novosibirsk-Ground: 121.700
UNNT_Novosibirsk-Radar: 122.000
UNNT_Novosibirsk-Tower: 118.500
UNNT_Novosibirsk-Transit: 131.600
UNNT_S7 FOCC: 131.925

UNOO Gnd/Tower/App (Archives)
Omsk, Russia

Feed Status: UP
Listen in your browser - HTML5 player(in browser, HTML5)
Click here to listen with your own player(launches your MP3 player)

UNOO 211400Z 19004MPS 9999 3700SE FU NSC M14/M16 Q1023 R25/810555 NOSIG RMK QFE759

UNOO Flight Activity (Flightaware)

Listeners: 1 out of 1261 total

Aerodrom Kalachevo: 123.300
Aerodrom Marianovka: 123.000
Emergency/Guard: 121.500
Novosibirsk Control (Sector 7): 132.500
Novosibirsk Control (Sector 8): 132.900
Omsk Approach (FL060-FL265): 131.200
Omsk Apron: 118.800
Omsk Start/Radar: 119.000
Omsk Taxiing: 121.700
Omsk Transit: 131.700
UNOS/OMSK-Severny: 124.000

UNTT Gnd/Info/Radar/Control (Archives)
Tomsk, Russia

Feed Status: UP
Listen in your browser - HTML5 player(in browser, HTML5)
Click here to listen with your own player(launches your MP3 player)

UNTT Flight Activity (Flightaware)

Listeners: 0 out of 1261 total

Common Backup Frequency: 129.000
Emergency/Guard: 121.500
Novosibirsk Control (Sector 2): 126.100
Novosibirsk Control (Sector 3): 129.300
Novosibirsk Control (Sector 5): 132.300
Tomsk Ground: 118.800
Tomsk Information 1: 134.500
Tomsk Krug (Radar): 127.300
Tomsk Transit: 131.875
Troynik (Golovino): 122.400

USCC Twr/App/Control (Archives)
Chelyabinsk, Russia

Feed Status: UP
Listen in your browser - HTML5 player(in browser, HTML5)
Click here to listen with your own player(launches your MP3 player)

USCC 211400Z 20006MPS 9999 SCT040 M03/M11 Q1010 R27/000060 TEMPO 20010MPS 1200 SN BLSN VV003 RMK QFE738

USCC Flight Activity (Flightaware)

Listeners: 0 out of 1261 total

Airfield Services: 163.380
Airfield Services: 163.500
Airfield Services: 163.950
Airfield Services: 164.150
Chelyabinsk Approach: 124.700
Chelyabinsk Control (North): 125.400
Chelyabinsk Control (South): 125.500
Chelyabinsk Tower: 125.200
Chelyabinsk Transit: 131.600
Emergency/Guard: 121.500

USTR Gnd/Twr/App (Archives)
Tyumen, Russia

Feed Status: UP
Listen in your browser - HTML5 player(in browser, HTML5)
Click here to listen with your own player(launches your MP3 player)

USTR 211400Z 21005MPS 9999 BKN046 M08/M12 Q1010 R21/CLRD65 NOSIG RMK QFE748/0998

USTR Flight Activity (Flightaware)

Listeners: 0 out of 1261 total

Tyumen Approach: 126.100
Tyumen Control: 132.600
Tyumen Control: 133.600
Tyumen Info (Regional): 133.400
Tyumen Start: 118.200
Tyumen Transit: 131.800

USUU Twr/App/Control (Archives)
Kurgan, Russia

Feed Status: UP
Listen in your browser - HTML5 player(in browser, HTML5)
Click here to listen with your own player(launches your MP3 player)

USUU Flight Activity (Flightaware)

Listeners: 0 out of 1261 total

Aerodromnaya 50: 164.100
Baggage Handling: 164.025
Kurgan Approach: 120.300
Kurgan Tower: 134.300
Kurgan/USUU Transit: 131.700
Kurtamysh: 122.450
Ural Control Sector 4: 119.700
USUL Tower: 129.600

VCBI Director
Colombo, Sri Lanka

Feed Status: DOWN
Offline since: 2019-02-21 13:24:04 UTC

VCBI 211410Z 05014KT 9999 FEW018 29/20 Q1012 NOSIG

Colombo Director: 132.400

VHHH Approach 119.1 #1 (Archives)
Hong Kong, Hong Kong

Feed Status: UP
Listen in your browser - HTML5 player(in browser, HTML5)
Click here to listen with your own player(launches your MP3 player)

VHHH 211400Z 13010KT 110V190 9999 FEW020 24/20 Q1016 NOSIG

VHHH Flight Activity (Flightaware)

Listeners: 1 out of 1261 total

Hong Kong Approach: 119.100

VHHH Approach 119.1 #2 (Archives)
Hong Kong, Hong Kong

Feed Status: UP
Listen in your browser - HTML5 player(in browser, HTML5)
Click here to listen with your own player(launches your MP3 player)

VHHH 211400Z 13010KT 110V190 9999 FEW020 24/20 Q1016 NOSIG

VHHH Flight Activity (Flightaware)

Listeners: 0 out of 1261 total

Hong Kong Approach: 119.100

VHHH ATIS (Archives)
Hong Kong, Hong Kong

Feed Status: UP
Listen in your browser - HTML5 player(in browser, HTML5)
Click here to listen with your own player(launches your MP3 player)

VHHH 211400Z 13010KT 110V190 9999 FEW020 24/20 Q1016 NOSIG

VHHH Flight Activity (Flightaware)

Listeners: 0 out of 1261 total

Hong Kong Arrival ATIS: 128.200

VHHH Clearance Delivery (Archives)
Hong Kong, Hong Kong

Feed Status: UP
Listen in your browser - HTML5 player(in browser, HTML5)
Click here to listen with your own player(launches your MP3 player)

VHHH 211400Z 13010KT 110V190 9999 FEW020 24/20 Q1016 NOSIG

VHHH Flight Activity (Flightaware)

Listeners: 0 out of 1261 total

Hong Kong Clearance Delivery: 129.900

VHHH Departure (Primary) (Archives)
Hong Kong, Hong Kong

Feed Status: UP
Listen in your browser - HTML5 player(in browser, HTML5)
Click here to listen with your own player(launches your MP3 player)

VHHH 211400Z 13010KT 110V190 9999 FEW020 24/20 Q1016 NOSIG

VHHH Flight Activity (Flightaware)

Listeners: 0 out of 1261 total

Hong Kong Departure: 123.800

VHHH Director #1 (Archives)
Hong Kong, Hong Kong

Feed Status: UP
Listen in your browser - HTML5 player(in browser, HTML5)
Click here to listen with your own player(launches your MP3 player)

VHHH 211400Z 13010KT 110V190 9999 FEW020 24/20 Q1016 NOSIG

VHHH Flight Activity (Flightaware)

Listeners: 0 out of 1261 total

Hong Kong Director: 119.500

VHHH Director #2 (Archives)
Hong Kong, Hong Kong

Feed Status: UP
Listen in your browser - HTML5 player(in browser, HTML5)
Click here to listen with your own player(launches your MP3 player)

VHHH 211400Z 13010KT 110V190 9999 FEW020 24/20 Q1016 NOSIG

VHHH Flight Activity (Flightaware)

Listeners: 0 out of 1261 total

Hong Kong Director: 119.500

VHHH Ground (Archives)
Hong Kong, Hong Kong

Feed Status: UP
Listen in your browser - HTML5 player(in browser, HTML5)
Click here to listen with your own player(launches your MP3 player)

VHHH 211400Z 13010KT 110V190 9999 FEW020 24/20 Q1016 NOSIG

VHHH Flight Activity (Flightaware)

Listeners: 0 out of 1261 total

Hong Kong Ground (North): 121.600
Hong Kong Ground (South): 122.550

VHHH Ground (North) (Archives)
Hong Kong, Hong Kong

Feed Status: UP
Listen in your browser - HTML5 player(in browser, HTML5)
Click here to listen with your own player(launches your MP3 player)

VHHH 211400Z 13010KT 110V190 9999 FEW020 24/20 Q1016 NOSIG

VHHH Flight Activity (Flightaware)

Listeners: 0 out of 1261 total

Hong Kong Ground (North): 121.600

VHHH Ground (South) (Archives)
Hong Kong, Hong Kong

Feed Status: UP
Listen in your browser - HTML5 player(in browser, HTML5)
Click here to listen with your own player(launches your MP3 player)

VHHH 211400Z 13010KT 110V190 9999 FEW020 24/20 Q1016 NOSIG

VHHH Flight Activity (Flightaware)

Listeners: 0 out of 1261 total

Hong Kong Ground (South): 122.550

VHHH Hong Kong Radar
Hong Kong, Hong Kong

Feed Status: DOWN
Offline since: 2019-02-18 09:54:03 UTC

VHHH 211400Z 13010KT 110V190 9999 FEW020 24/20 Q1016 NOSIG

Hong Kong Radar: 123.950

VHHH Tower (Archives)
Hong Kong, Hong Kong

Feed Status: UP
Listen in your browser - HTML5 player(in browser, HTML5)
Click here to listen with your own player(launches your MP3 player)

VHHH 211400Z 13010KT 110V190 9999 FEW020 24/20 Q1016 NOSIG

VHHH Flight Activity (Flightaware)

Listeners: 0 out of 1261 total

Hong Kong Tower (North): 118.200
Hong Kong Tower (South): 118.400

VHHH Tower (North) (Archives)
Hong Kong, Hong Kong

Feed Status: UP
Listen in your browser - HTML5 player(in browser, HTML5)
Click here to listen with your own player(launches your MP3 player)

VHHH 211400Z 13010KT 110V190 9999 FEW020 24/20 Q1016 NOSIG

VHHH Flight Activity (Flightaware)

Listeners: 0 out of 1261 total

Hong Kong Tower (North): 118.200

VHHH Tower (South) (Archives)
Hong Kong, Hong Kong

Feed Status: UP
Listen in your browser - HTML5 player(in browser, HTML5)
Click here to listen with your own player(launches your MP3 player)

VHHH 211400Z 13010KT 110V190 9999 FEW020 24/20 Q1016 NOSIG

VHHH Flight Activity (Flightaware)

Listeners: 1 out of 1261 total

Hong Kong Tower (South): 118.400

VHHH Zone (Archives)
Hong Kong, Hong Kong

Feed Status: UP
Listen in your browser - HTML5 player(in browser, HTML5)
Click here to listen with your own player(launches your MP3 player)

VHHH 211400Z 13010KT 110V190 9999 FEW020 24/20 Q1016 NOSIG

VHHH Flight Activity (Flightaware)

Listeners: 0 out of 1261 total

Hong Kong Zone: 120.600

VTBS Approach (East) (Archives)
Bangkok, Thailand

Feed Status: UP
Listen in your browser - HTML5 player(in browser, HTML5)
Click here to listen with your own player(launches your MP3 player)

VTBS 211400Z 20009KT 9999 FEW030 28/24 Q1013 NOSIG

VTBS Flight Activity (Flightaware)

Listeners: 0 out of 1261 total

Bangkok Approach (East): 122.350

VTBS Approach (North) (Archives)
Bangkok, Thailand

Feed Status: UP
Listen in your browser - HTML5 player(in browser, HTML5)
Click here to listen with your own player(launches your MP3 player)

VTBS 211400Z 20009KT 9999 FEW030 28/24 Q1013 NOSIG

VTBS Flight Activity (Flightaware)

Listeners: 0 out of 1261 total

Bangkok Approach (North): 121.700

VTBS Approach 119.1 (Archives)
Bangkok, Thailand

Feed Status: UP
Listen in your browser - HTML5 player(in browser, HTML5)
Click here to listen with your own player(launches your MP3 player)

VTBS 211400Z 20009KT 9999 FEW030 28/24 Q1013 NOSIG

VTBS Flight Activity (Flightaware)

Listeners: 0 out of 1261 total

Bangkok Approach: 119.100

VTBS Approach 119.4 (Archives)
Bangkok, Thailand

Feed Status: UP
Listen in your browser - HTML5 player(in browser, HTML5)
Click here to listen with your own player(launches your MP3 player)

VTBS 211400Z 20009KT 9999 FEW030 28/24 Q1013 NOSIG

VTBS Flight Activity (Flightaware)

Listeners: 0 out of 1261 total

Bangkok Approach: 119.400

VTBS Approach 120.3 (Archives)
Bangkok, Thailand

Feed Status: UP
Listen in your browser - HTML5 player(in browser, HTML5)
Click here to listen with your own player(launches your MP3 player)

VTBS 211400Z 20009KT 9999 FEW030 28/24 Q1013 NOSIG

VTBS Flight Activity (Flightaware)

Listeners: 0 out of 1261 total

Bangkok Approach: 120.300

VTBS Approach/Arrival (Archives)
Bangkok, Thailand

Feed Status: UP
Listen in your browser - HTML5 player(in browser, HTML5)
Click here to listen with your own player(launches your MP3 player)

VTBS 211400Z 20009KT 9999 FEW030 28/24 Q1013 NOSIG

VTBS Flight Activity (Flightaware)

Listeners: 0 out of 1261 total

Bangkok Approach: 124.350
Bangkok Approach: 125.200
Bangkok Approach: 124.700
Bangkok Approach: 126.300
Bangkok Approach: 133.400
Bangkok Arrival (VTBD): 125.500

VTBS Arrival 121.1 (Archives)
Bangkok, Thailand

Feed Status: UP
Listen in your browser - HTML5 player(in browser, HTML5)
Click here to listen with your own player(launches your MP3 player)

VTBS 211400Z 20009KT 9999 FEW030 28/24 Q1013 NOSIG

VTBS Flight Activity (Flightaware)

Listeners: 0 out of 1261 total

Bangkok Arrival: 121.100

VTBS ATIS (Archives)
Bangkok, Thailand

Feed Status: UP
Listen in your browser - HTML5 player(in browser, HTML5)
Click here to listen with your own player(launches your MP3 player)

VTBS 211400Z 20009KT 9999 FEW030 28/24 Q1013 NOSIG

VTBS Flight Activity (Flightaware)

Listeners: 0 out of 1261 total

Bangkok D-ATIS: 133.600

VTBS Control (FIR) (Archives)
Bangkok, Thailand

Feed Status: UP
Listen in your browser - HTML5 player(in browser, HTML5)
Click here to listen with your own player(launches your MP3 player)

VTBS 211400Z 20009KT 9999 FEW030 28/24 Q1013 NOSIG

VTBS Flight Activity (Flightaware)

Listeners: 0 out of 1261 total

Bangkok FIR (Sector 3): 135.500

VTBS Departure (Archives)
Bangkok, Thailand

Feed Status: UP
Listen in your browser - HTML5 player(in browser, HTML5)
Click here to listen with your own player(launches your MP3 player)

VTBS 211400Z 20009KT 9999 FEW030 28/24 Q1013 NOSIG

VTBS Flight Activity (Flightaware)

Listeners: 0 out of 1261 total

Bangkok Departure: 119.250

VTBS Ground (East) (Archives)
Bangkok, Thailand

Feed Status: UP
Listen in your browser - HTML5 player(in browser, HTML5)
Click here to listen with your own player(launches your MP3 player)

VTBS 211400Z 20009KT 9999 FEW030 28/24 Q1013 NOSIG

VTBS Flight Activity (Flightaware)

Listeners: 0 out of 1261 total

Bangkok Ground (East): 121.650

VTBS Ground (Main) (Archives)
Bangkok, Thailand

Feed Status: UP
Listen in your browser - HTML5 player(in browser, HTML5)
Click here to listen with your own player(launches your MP3 player)

VTBS 211400Z 20009KT 9999 FEW030 28/24 Q1013 NOSIG

VTBS Flight Activity (Flightaware)

Listeners: 0 out of 1261 total

Bangkok Ground (Main): 121.750

VTBS Ground (West) (Archives)
Bangkok, Thailand

Feed Status: UP
Listen in your browser - HTML5 player(in browser, HTML5)
Click here to listen with your own player(launches your MP3 player)

VTBS 211400Z 20009KT 9999 FEW030 28/24 Q1013 NOSIG

VTBS Flight Activity (Flightaware)

Listeners: 1 out of 1261 total

Bangkok Ground (West): 121.950

VTBS Tower (Archives)
Bangkok, Thailand

Feed Status: UP
Listen in your browser - HTML5 player(in browser, HTML5)
Click here to listen with your own player(launches your MP3 player)

VTBS 211400Z 20009KT 9999 FEW030 28/24 Q1013 NOSIG

VTBS Flight Activity (Flightaware)

Listeners: 0 out of 1261 total

Bangkok Tower (Rwy 01L/19R): 119.000
Bangkok Tower (Rwy 01R/19L): 118.200

VTBS Tower (Rwy 01L/19R) (Archives)
Bangkok, Thailand

Feed Status: UP
Listen in your browser - HTML5 player(in browser, HTML5)
Click here to listen with your own player(launches your MP3 player)

VTBS 211400Z 20009KT 9999 FEW030 28/24 Q1013 NOSIG

VTBS Flight Activity (Flightaware)

Listeners: 1 out of 1261 total

Bangkok Tower (Rwy 01L/19R): 119.000

VTBS Tower (Rwy 01R/19L) (Archives)
Bangkok, Thailand

Feed Status: UP
Listen in your browser - HTML5 player(in browser, HTML5)
Click here to listen with your own player(launches your MP3 player)

VTBS 211400Z 20009KT 9999 FEW030 28/24 Q1013 NOSIG

VTBS Flight Activity (Flightaware)

Listeners: 1 out of 1261 total

Bangkok Tower (Rwy 01R/19L): 118.200

VTSS Approach (Archives)
Songkhla, Thailand

Feed Status: UP
Listen in your browser - HTML5 player(in browser, HTML5)
Click here to listen with your own player(launches your MP3 player)

VTSS 211400Z 00000KT 9999 SCT020 SCT100 27/24 Q1013 NOSIG

VTSS Flight Activity (Flightaware)

Listeners: 0 out of 1261 total

Hat Yai Approach: 126.700

WAHH Approach
Yogyakarta, Indonesia

Feed Status: DOWN
Offline since: 2019-01-09 17:03:03 UTC

Adisutjipto Approach: 123.400

WARR Gnd/Twr/Radar (Archives)
Surabaya, Indonesia

Feed Status: UP
Listen in your browser - HTML5 player(in browser, HTML5)
Click here to listen with your own player(launches your MP3 player)

WARR 211400Z 10006KT 8000 SCT020 28/25 Q1013 NOSIG


Listeners: 2 out of 1261 total

Juanda Ground: 119.150
Juanda Tower: 118.300
Surabaya Director: 123.200
Surabaya East Control: 124.000
Surabaya West Control: 125.100

WBKK Gnd/Twr/App (Archives)
Kota Kinabalu, Malaysia

Feed Status: UP
Listen in your browser - HTML5 player(in browser, HTML5)
Click here to listen with your own player(launches your MP3 player)

WBKK 211400Z 12004KT 9999 FEW015 BKN280 27/24 Q1012 NOSIG


Listeners: 1 out of 1261 total

Kinabalu Director: 119.100
Kinabalu Ground: 121.600
Kinabalu Radar: 126.100
Kinabalu Radar: 132.450
Kinabalu Tower: 118.300

WBKK Gnd/Twr/Radar/Control (Archives)
Kota Kinabalu, Malaysia

Feed Status: UP
Listen in your browser - HTML5 player(in browser, HTML5)
Click here to listen with your own player(launches your MP3 player)

WBKK 211400Z 12004KT 9999 FEW015 BKN280 27/24 Q1012 NOSIG


Listeners: 0 out of 1261 total

Kinabalu Director: 119.100
Kinabalu Ground: 121.600
Kinabalu Radar: 126.100
Kinabalu Radar: 132.450
Kinabalu Radar: 128.300
Kinabalu Tower: 118.300

WMKB Radar (Archives)
Penang, Malaysia

Feed Status: UP
Listen in your browser - HTML5 player(in browser, HTML5)
Click here to listen with your own player(launches your MP3 player)

WMKB 211400Z 08004KT 8000 FEW017CB SCT140 BKN270 28/25 Q1012 NOSIG


Listeners: 3 out of 1261 total

Butterworth Radar: 125.800

ZBAA Tower (Archives)
Beijing, China

Feed Status: UP
Listen in your browser - HTML5 player(in browser, HTML5)
Click here to listen with your own player(launches your MP3 player)

ZBAA 211400Z 19003MPS 170V250 2800 HZ NSC 05/M06 Q1026 BECMG TL1440 3000


Listeners: 10 out of 1261 total

Beijing Tower (Rwy 01/19): 118.600

ZGKL App/Control
Guilin, China

Feed Status: DOWN
Offline since: 2019-02-21 04:22:03 UTC

ZGKL 211400Z 04004MPS 9999 SCT026 SCT060 07/04 Q1025 NOSIG

Guilin Approach: 120.850
Guilin Control: 133.600

ZYCY Tower
Chaoyang, China

Feed Status: DOWN
Offline since: 2019-01-27 01:06:03 UTC

ZYCY 140700Z 25002MPS CAVOK 29/16 Q1006 NOSIG

Chaoyang Tower: 118.350